ASTEX 1 (5560 NORAD) Tracking and Keplerian Element Data

This shows tracking and keplerian element data for the satellite.

Feedback or suggestion? Click here.




ElementValue
Catalog5560
NameASTEX 1
Epoch Orbit74826
Epoch Day12.69904219
Epoch Year2024
RAAN257.3051
Inclination92.7202
Eccentricity0.0014584
Argument of Perigee213.7572
Mean Anonmoly146.2706
Mean Motion14.49087423
Decay Rate8.78E-06
L11 05560U 71089A 24012.69904219 .00000878 00000+0 23130-3 0 9994
L22 05560 92.7202 257.3051 0014584 213.7572 146.2706 14.49087423748267



Live tracking and technical data element details for ASTEX 1 (NORAD 5560). ASTEX 1 can be tracked NOW for your location showing map with azimuth and elevation plus other details from your city location.







IsCatalogInMostPopularTable: catalog: 5560, numindb: 281
Update: records affected: 1



GetName: 5560 ASTEX 1

Hit Count: updated at: Sun, 14 Apr 2024 22:48:12 GMT